| time (UTC) | temp C | wind direction | speed KPH | gust KPH | rain 1hr cm | rain 24hr cm | rain mn cm | humidity % | barometer mb |
| 20260506010903 | 6 | 68 | 4.8 | 8.0 | 0.00 | 0.00 | 0.00 | 83 | 991.6 |
| 20260506010218 | 6 | 68 | 4.8 | 12.9 | 0.00 | 0.00 | 0.00 | 83 | 991.5 |
| 20260506005403 | 6 | 69 | 4.8 | 9.7 | 0.00 | 0.00 | 0.00 | 83 | 991.5 |
| 20260506004717 | 6 | 69 | 6.4 | 12.9 | 0.00 | 0.00 | 0.00 | 83 | 991.6 |
| 20260506003603 | 6 | 71 | 4.8 | 14.5 | 0.00 | 0.00 | 0.00 | 83 | 991.7 |
| 20260506002703 | 6 | 71 | 4.8 | 9.7 | 0.00 | 0.00 | 0.00 | 83 | 991.7 |
| 20260506001803 | 6 | 71 | 4.8 | 9.7 | 0.00 | 0.00 | 0.00 | 83 | 991.7 |
| 20260506000903 | 7 | 72 | 6.4 | 14.5 | 0.00 | 0.00 | 0.00 | 82 | 991.6 |
| 20260506000003 | 7 | 71 | 6.4 | 19.3 | 0.00 | 0.00 | 0.00 | 82 | 991.6 |
| 20260505235403 | 7 | 63 | 6.4 | 19.3 | 0.00 | 0.00 | 0.00 | 82 | 991.5 |
| 20260505234503 | 7 | 58 | 8.0 | 16.1 | 0.00 | 0.00 | 0.00 | 82 | 991.7 |
| 20260505233603 | 7 | 52 | 8.0 | 17.7 | 0.00 | 0.00 | 0.00 | 82 | 991.7 |
| 20260505232703 | 7 | 48 | 11.3 | 16.1 | 0.00 | 0.00 | 0.00 | 82 | 991.7 |
| 20260505231803 | 7 | 56 | 11.3 | 20.9 | 0.00 | 0.00 | 0.00 | 82 | 991.5 |
| 20260505231118 | 7 | 59 | 9.7 | 19.3 | 0.00 | 0.00 | 0.00 | 83 | 991.6 |
| 20260505230003 | 7 | 61 | 9.7 | 22.5 | 0.00 | 0.00 | 0.00 | 83 | 991.6 |
| 20260505225403 | 7 | 56 | 9.7 | 22.5 | 0.00 | 0.00 | 0.00 | 83 | 991.6 |
| 20260505224503 | 7 | 58 | 9.7 | 19.3 | 0.00 | 0.00 | 0.00 | 84 | 991.7 |
| 20260505223817 | 7 | 56 | 8.0 | 19.3 | 0.00 | 0.00 | 0.00 | 84 | 991.7 |
| 20260505222703 | 7 | 53 | 9.7 | 17.7 | 0.00 | 0.00 | 0.00 | 85 | 991.7 |
| 20260505221803 | 7 | 48 | 9.7 | 20.9 | 0.00 | 0.00 | 0.00 | 85 | 991.7 |
| 20260505220903 | 7 | 51 | 8.0 | 20.9 | 0.00 | 0.00 | 0.00 | 85 | 991.8 |
| 20260505220003 | 7 | 71 | 4.8 | 14.5 | 0.00 | 0.00 | 0.00 | 86 | 991.6 |
| 20260505215618 | 8 | 73 | 4.8 | 14.5 | 0.00 | 0.00 | 0.00 | 86 | 991.6 |
| 20260505214503 | 8 | 75 | 4.8 | 14.5 | 0.00 | 0.00 | 0.00 | 86 | 991.5 |
| 20260505213817 | 8 | 77 | 6.4 | 11.3 | 0.00 | 0.00 | 0.00 | 85 | 991.4 |
| 20260505212703 | 8 | 72 | 6.4 | 14.5 | 0.00 | 0.00 | 0.00 | 85 | 991.4 |
| 20260505211803 | 8 | 2 | 4.8 | 14.5 | 0.00 | 0.00 | 0.00 | 86 | 991.3 |
| 20260505210903 | 8 | 304 | 3.2 | 14.5 | 0.00 | 0.00 | 0.00 | 86 | 991.3 |
| 20260505210003 | 8 | 300 | 1.6 | 4.8 | 0.00 | 0.00 | 0.00 | 86 | 991.4 |
| 20260505205403 | 8 | 300 | 1.6 | 4.8 | 0.00 | 0.00 | 0.00 | 85 | 991.3 |
| 20260505204503 | 8 | 300 | 1.6 | 4.8 | 0.00 | 0.00 | 0.00 | 85 | 991.3 |
| 20260505203603 | 8 | 300 | 0.0 | 4.8 | 0.00 | 0.00 | 0.00 | 84 | 991.0 |
| 20260505202703 | 8 | 300 | 1.6 | 3.2 | 0.00 | 0.00 | 0.00 | 84 | 991.2 |
| 20260505201803 | 8 | 300 | 1.6 | 6.4 | 0.00 | 0.00 | 0.00 | 84 | 991.0 |
| 20260505200903 | 8 | 300 | 3.2 | 6.4 | 0.00 | 0.00 | 0.00 | 83 | 991.0 |
| 20260505200003 | 8 | 300 | 3.2 | 6.4 | 0.00 | 0.00 | 0.00 | 83 | 991.0 |
| 20260505195403 | 8 | 300 | 3.2 | 12.9 | 0.00 | 0.00 | 0.00 | 83 | 991.0 |
| 20260505194503 | 9 | 300 | 3.2 | 8.0 | 0.00 | 0.00 | 0.00 | 83 | 990.8 |
| 20260505193818 | 9 | 300 | 3.2 | 11.3 | 0.00 | 0.00 | 0.00 | 83 | 990.7 |
| 20260505192703 | 9 | 300 | 4.8 | 8.0 | 0.00 | 0.00 | 0.00 | 83 | 990.7 |
| 20260505192017 | 9 | 300 | 4.8 | 11.3 | 0.00 | 0.00 | 0.00 | 82 | 990.7 |
| 20260505190903 | 10 | 298 | 4.8 | 16.1 | 0.00 | 0.00 | 0.00 | 81 | 990.5 |
| 20260505190217 | 10 | 295 | 3.2 | 16.1 | 0.00 | 0.00 | 0.00 | 81 | 990.5 |
| 20260505185617 | 10 | 289 | 3.2 | 11.3 | 0.00 | 0.00 | 0.00 | 81 | 990.6 |
| 20260505184503 | 10 | 288 | 4.8 | 12.9 | 0.00 | 0.00 | 0.00 | 81 | 990.5 |
| 20260505183603 | 10 | 288 | 3.2 | 12.9 | 0.00 | 0.00 | 0.00 | 81 | 990.6 |
| 20260505182703 | 10 | 288 | 3.2 | 8.0 | 0.00 | 0.00 | 0.00 | 82 | 990.5 |
| 20260505181803 | 10 | 288 | 3.2 | 11.3 | 0.00 | 0.00 | 0.00 | 82 | 990.5 |
| 20260505180903 | 10 | 288 | 3.2 | 11.3 | 0.00 | 0.00 | 0.00 | 82 | 990.4 |
| 20260505180003 | 10 | 288 | 3.2 | 11.3 | 0.00 | 0.00 | 0.00 | 82 | 990.4 |
| 20260505175403 | 10 | 288 | 4.8 | 11.3 | 0.00 | 0.00 | 0.00 | 82 | 990.5 |
| 20260505174503 | 10 | 286 | 4.8 | 14.5 | 0.00 | 0.00 | 0.00 | 82 | 990.5 |
| 20260505173603 | 10 | 286 | 3.2 | 12.9 | 0.00 | 0.00 | 0.00 | 83 | 990.6 |
| 20260505172703 | 10 | 285 | 4.8 | 6.4 | 0.00 | 0.00 | 0.00 | 84 | 990.5 |
| 20260505171803 | 10 | 285 | 6.4 | 12.9 | 0.00 | 0.00 | 0.00 | 84 | 990.7 |
| 20260505170903 | 10 | 285 | 4.8 | 12.9 | 0.00 | 0.00 | 0.00 | 84 | 990.5 |
| 20260505170217 | 10 | 285 | 4.8 | 14.5 | 0.00 | 0.00 | 0.00 | 83 | 990.7 |
| 20260505165403 | 10 | 284 | 3.2 | 11.3 | 0.00 | 0.00 | 0.00 | 83 | 990.7 |
| 20260505164503 | 10 | 284 | 4.8 | 9.7 | 0.00 | 0.00 | 0.00 | 85 | 990.6 |
| 20260505163603 | 10 | 284 | 6.4 | 12.9 | 0.00 | 0.00 | 0.00 | 84 | 990.6 |
| 20260505162703 | 10 | 284 | 4.8 | 12.9 | 0.00 | 0.00 | 0.00 | 84 | 990.7 |
| 20260505161803 | 10 | 284 | 6.4 | 11.3 | 0.00 | 0.00 | 0.00 | 84 | 990.8 |
| 20260505160903 | 10 | 284 | 4.8 | 12.9 | 0.00 | 0.00 | 0.00 | 84 | 990.7 |
| 20260505160216 | 10 | 284 | 4.8 | 11.3 | 0.00 | 0.00 | 0.00 | 83 | 990.9 |
| 20260505152703 | 10 | 282 | 8.0 | 12.9 | 0.00 | 0.00 | 0.00 | 83 | 990.8 |
| 20260505151803 | 10 | 282 | 8.0 | 17.7 | 0.00 | 0.00 | 0.00 | 82 | 990.9 |
| 20260505150903 | 11 | 286 | 4.8 | 17.7 | 0.00 | 0.00 | 0.00 | 80 | 990.9 |
| 20260505124718 | 9 | 300 | 4.8 | 14.5 | 0.00 | 0.00 | 0.00 | 81 | 991.0 |
| 20260505123603 | 9 | 300 | 4.8 | 11.3 | 0.00 | 0.00 | 0.00 | 82 | 991.1 |
| 20260505122703 | 10 | 295 | 4.8 | 12.9 | 0.00 | 0.00 | 0.00 | 81 | 991.1 |
| 20260505121803 | 10 | 295 | 4.8 | 12.9 | 0.00 | 0.00 | 0.00 | 79 | 991.0 |
| 20260505121117 | 10 | 297 | 4.8 | 12.9 | 0.00 | 0.00 | 0.00 | 77 | 991.0 |
| 20260505120003 | 10 | 309 | 6.4 | 14.5 | 0.00 | 0.00 | 0.00 | 77 | 991.0 |
| 20260505115403 | 10 | 321 | 4.8 | 12.9 | 0.00 | 0.00 | 0.00 | 79 | 991.0 |
| 20260505114503 | 10 | 335 | 4.8 | 9.7 | 0.00 | 0.00 | 0.00 | 79 | 991.1 |
| 20260505113603 | 10 | 338 | 3.2 | 19.3 | 0.00 | 0.00 | 0.00 | 79 | 991.2 |
| 20260505112703 | 10 | 322 | 3.2 | 8.0 | 0.00 | 0.00 | 0.00 | 80 | 991.3 |
| 20260505111803 | 10 | 323 | 3.2 | 9.7 | 0.00 | 0.00 | 0.00 | 79 | 991.3 |
| 20260505110903 | 10 | 325 | 3.2 | 12.9 | 0.00 | 0.00 | 0.00 | 80 | 991.3 |
| 20260505101803 | 11 | 317 | 6.4 | 14.5 | 0.00 | 0.00 | 0.00 | 75 | 991.3 |
| 20260505100903 | 11 | 332 | 4.8 | 14.5 | 0.00 | 0.00 | 0.00 | 73 | 991.3 |
| 20260505100003 | 10 | 347 | 6.4 | 19.3 | 0.00 | 0.00 | 0.00 | 75 | 991.2 |
| 20260505095403 | 10 | 332 | 6.4 | 19.3 | 0.00 | 0.00 | 0.00 | 74 | 991.3 |
| 20260505094503 | 10 | 314 | 6.4 | 16.1 | 0.00 | 0.00 | 0.00 | 76 | 991.5 |
| 20260505093603 | 10 | 286 | 6.4 | 19.3 | 0.00 | 0.00 | 0.00 | 77 | 991.4 |
| 20260505092703 | 10 | 334 | 6.4 | 17.7 | 0.00 | 0.00 | 0.00 | 76 | 991.4 |
| 20260505091803 | 10 | 309 | 8.0 | 16.1 | 0.00 | 0.00 | 0.00 | 77 | 991.4 |
| 20260505091116 | 10 | 301 | 8.0 | 16.1 | 0.00 | 0.00 | 0.00 | 78 | 991.3 |
| 20260505090003 | 10 | 299 | 6.4 | 16.1 | 0.00 | 0.00 | 0.00 | 79 | 991.2 |
| 20260505085403 | 10 | 307 | 6.4 | 17.7 | 0.00 | 0.00 | 0.00 | 75 | 991.3 |
| 20260505084503 | 10 | 309 | 4.8 | 16.1 | 0.00 | 0.00 | 0.00 | 74 | 991.4 |
| 20260505083818 | 11 | 315 | 4.8 | 12.9 | 0.00 | 0.00 | 0.00 | 77 | 991.5 |
| 20260505082703 | 10 | 334 | 6.4 | 14.5 | 0.00 | 0.00 | 0.00 | 80 | 991.4 |
| 20260505081803 | 10 | 350 | 6.4 | 17.7 | 0.00 | 0.00 | 0.00 | 81 | 991.3 |
| 20260505080903 | 10 | 337 | 4.8 | 14.5 | 0.00 | 0.00 | 0.00 | 82 | 991.4 |
| 20260505080003 | 10 | 318 | 6.4 | 16.1 | 0.00 | 0.00 | 0.00 | 85 | 991.5 |
| 20260505075403 | 9 | 332 | 4.8 | 16.1 | 0.00 | 0.00 | 0.00 | 85 | 991.4 |
| 20260505074503 | 8 | 346 | 4.8 | 14.5 | 0.00 | 0.00 | 0.00 | 86 | 991.3 |
| 20260505073603 | 8 | 325 | 4.8 | 14.5 | 0.00 | 0.00 | 0.00 | 87 | 991.2 |
| 20260505072703 | 8 | 311 | 4.8 | 12.9 | 0.00 | 0.00 | 0.00 | 88 | 991.3 |
| 20260505071803 | 8 | 308 | 3.2 | 16.1 | 0.00 | 0.00 | 0.00 | 88 | 991.4 |
| 20260505070903 | 8 | 307 | 3.2 | 8.0 | 0.00 | 0.00 | 0.00 | 89 | 991.5 |
| 20260505070003 | 8 | 310 | 4.8 | 12.9 | 0.00 | 0.00 | 0.00 | 89 | 991.6 |
| 20260505065403 | 8 | 310 | 4.8 | 12.9 | 0.00 | 0.00 | 0.00 | 90 | 991.7 |
| 20260505064718 | 7 | 308 | 4.8 | 12.9 | 0.00 | 0.00 | 0.00 | 90 | 991.7 |
| 20260505063603 | 7 | 311 | 3.2 | 12.9 | 0.00 | 0.00 | 0.00 | 91 | 991.7 |
| 20260505062703 | 7 | 311 | 3.2 | 6.4 | 0.00 | 0.00 | 0.00 | 92 | 991.6 |
| 20260505062018 | 7 | 311 | 3.2 | 9.7 | 0.00 | 0.00 | 0.00 | 92 | 991.5 |
| 20260505060903 | 7 | 312 | 1.6 | 8.0 | 0.00 | 0.00 | 0.00 | 92 | 991.6 |
| 20260505060003 | 7 | 313 | 1.6 | 9.7 | 0.00 | 0.00 | 0.00 | 93 | 991.7 |
| 20260505055403 | 7 | 313 | 1.6 | 9.7 | 0.00 | 0.00 | 0.00 | 92 | 991.6 |
| 20260505054503 | 6 | 313 | 0.0 | 4.8 | 0.00 | 0.00 | 0.00 | 93 | 991.6 |
| 20260505053817 | 6 | 313 | 0.0 | 3.2 | 0.00 | 0.00 | 0.00 | 93 | 991.6 |
| 20260505052703 | 6 | 312 | 0.0 | 4.8 | 0.00 | 0.00 | 0.00 | 93 | 991.8 |
| 20260505051803 | 6 | 313 | 0.0 | 4.8 | 0.00 | 0.00 | 0.00 | 93 | 991.7 |
| 20260505050903 | 6 | 313 | 0.0 | 3.2 | 0.00 | 0.00 | 0.00 | 93 | 991.8 |
| 20260505040903 | 6 | 312 | 1.6 | 4.8 | 0.00 | 0.00 | 0.00 | 92 | 991.5 |
| 20260505040004 | 6 | 312 | 1.6 | 6.4 | 0.00 | 0.00 | 0.00 | 92 | 991.5 |
| 20260505035403 | 6 | 313 | 1.6 | 6.4 | 0.00 | 0.00 | 0.00 | 92 | 991.4 |
| 20260505034503 | 6 | 313 | 0.0 | 6.4 | 0.00 | 0.00 | 0.00 | 92 | 991.3 |
| 20260505033603 | 6 | 313 | 0.0 | 3.2 | 0.00 | 0.00 | 0.00 | 92 | 991.2 |
| 20260505032703 | 6 | 313 | 0.0 | 8.0 | 0.00 | 0.00 | 0.00 | 91 | 991.4 |
| 20260505031803 | 6 | 313 | 0.0 | 3.2 | 0.00 | 0.00 | 0.00 | 91 | 991.3 |
| 20260505031118 | 6 | 313 | 0.0 | 3.2 | 0.00 | 0.00 | 0.00 | 91 | 991.5 |
| 20260505030003 | 7 | 313 | 3.2 | 6.4 | 0.00 | 0.00 | 0.00 | 91 | 991.5 |
| 20260505025403 | 7 | 313 | 3.2 | 9.7 | 0.00 | 0.00 | 0.00 | 91 | 991.4 |
| 20260505024503 | 7 | 314 | 3.2 | 6.4 | 0.00 | 0.00 | 0.00 | 91 | 991.4 |
| 20260505023603 | 7 | 315 | 3.2 | 9.7 | 0.00 | 0.00 | 0.00 | 91 | 991.4 |
| 20260505022917 | 7 | 317 | 3.2 | 9.7 | 0.00 | 0.00 | 0.00 | 92 | 991.5 |
| 20260505021803 | 7 | 317 | 3.2 | 6.4 | 0.00 | 0.00 | 0.00 | 92 | 991.4 |
| 20260505020903 | 7 | 317 | 3.2 | 9.7 | 0.00 | 0.00 | 0.00 | 92 | 991.5 |
| 20260505020003 | 7 | 318 | 1.6 | 9.7 | 0.00 | 0.00 | 0.00 | 92 | 991.6 |
| 20260505015403 | 6 | 319 | 1.6 | 8.0 | 0.00 | 0.00 | 0.00 | 92 | 991.7 |
| 20260505014503 | 6 | 319 | 1.6 | 6.4 | 0.00 | 0.00 | 0.00 | 92 | 991.8 |
| 20260505013603 | 6 | 319 | 1.6 | 6.4 | 0.00 | 0.00 | 0.00 | 92 | 991.8 |
| 20260505012917 | 6 | 319 | 1.6 | 6.4 | 0.00 | 0.00 | 0.00 | 92 | 991.8 |
| 20260505011803 | 6 | 319 | 1.6 | 4.8 | 0.00 | 0.00 | 0.00 | 92 | 992.0 |